Starlink 31758

operational
NORAD ID: 59621 Int'l Des: 2024-080 Owner: SPXS Country: US Constellation: starlink
LEOCIRCULAR

Starlink 31758について

説明を読み込み中...

リアルタイム位置

3D地球を読み込み中...

次回通過

高度履歴

Altitude vs Time

uPlot chart will show altitude changes over time

軌道要素

1 59621U 24080W 25350.16960046 .00001297 00000-0 56625-4 0 9991
2 59621 43.0024 145.7520 0001480 269.2054 90.8628 15.27585668 91807
Epoch: Dec 16, 2025 • Age: 21 hours

現在のステータス

高度 486.1 km
速度 7.63 km/s
衛星直下点 38.87°N, 102.84°E
打ち上げ日 Apr 28, 2024
運用期間 1.6 years
タイプ internet

技術仕様

分類 Payload
質量 730.00 kg
乾燥質量 700.00 kg
総質量 730.00 kg
長さ 0.30 m
直径 4.10 m
スパン 29.00 m
形状 Box + pan
製造者 SPXS
バスタイプ Starlink V2M
フェーズステータス In Orbit
所有者/国 SPXS/US

大規模コンステレーション

Loading constellations...